Weather in Petropavlovsk

Russia / Kamchatka Krai     53°01′26″N   158°38′36″E
temp.,
°C
wind,
m/s
gust,
m/s
humid.,
%
clouds,
%
prec.,
mm/h
press.,
hPa
HPBL,
m
28 february, sun
sun2800:00−8n3479100 0.0 1008113
03:00−8nnw4692100 0.6 1006210
06:00−8nw5884100 1.0 1004208
09:00−9nw71078100 0.1 1002208
12:00−6nw687798 0.1 1001350
15:00−4wnw8117490 0.0 998515
18:00−6wnw9147392 0.0 996400
21:00−11wnw10147831 0.0 996211
1 march, mon
mon100:00−12wnw9128115 0.0 994185
03:00−12wnw11178433 0.0 993283
06:00−13wnw11178836 0.0 994291
09:00−13wnw9148517 0.0 995299
12:00−6wnw1218729 0.0 9961106
15:00−4wnw1520670 0.0 9971431
18:00−6w1319700 0.0 998856
21:00−9wnw817790 0.0 1001405
2 march, tue
tue200:00−9wnw1120750 0.0 1003581
03:00−10wnw1019790 0.0 1005459
06:00−10w815800 0.0 1008346
09:00−10wnw816740 0.0 1012387
12:00−6wnw1216700 0.0 10161303
15:00−5wnw13176644 0.1 10201882
18:00−8wnw9147032 0.1 1023589
21:00−11nw687668 0.0 1027160
3 march, wed
wed300:00−13nw568184 0.0 1028112
03:00−13nw2374100 0.0 102654
06:00−11ne3395100 0.7 1022137
09:00−10nnw2495100 2.9 1017184
12:00−7wnw3395100 6.4 1009243
15:00−4nne4897100 8.2 1001371
18:000e71899100 26.3 992839
21:00+2sse162699100 13.7 982906
4 march, thu
thu400:000w141984100 16.9 9821104
03:00−8w19267233 0.0 9891184
06:00−11w17247218 0.1 9951124
09:00−12w1624720 0.0 10021313
12:00−10w18246817 0.0 10072178
15:00−8w17236785 0.1 10092018
18:00−8w5107349 0.1 1010465
21:00−10wsw377659 0.1 1009358